• En España
  • Lista de países
  • Para 7 días
  • Temperatura del agua
  • Mapa Satelital
  • El tiempo en el mapa
  • Informadores
  • user-avatar
    Iniciar sesión

    Tiempo cada hora Lowech

    Hoy, 25 Septiembre, Martes

    Tiempo Temperatura Precipitaciones Viento Presión Humedad
    00:00 +11°C° 0 mm 7 mps 741 mmHg 54%
    01:00 +10°C° 0 mm 6 mps 741 mmHg 54%
    02:00 +10°C° 0 mm 6 mps 742 mmHg 54%
    03:00 +9°C° 0 mm 6 mps 742 mmHg 56%
    04:00 +9°C° 0 mm 5 mps 742 mmHg 57%
    05:00 +8°C° 0 mm 5 mps 743 mmHg 59%
    06:00 +9°C° 0 mm 5 mps 743 mmHg 55%
    07:00 +9°C° 0 mm 6 mps 743 mmHg 51%
    08:00 +10°C° 0 mm 6 mps 744 mmHg 48%
    09:00 +11°C° 0 mm 6 mps 744 mmHg 42%
    10:00 +14°C° 0 mm 6 mps 744 mmHg 37%
    11:00 +15°C° 0 mm 6 mps 744 mmHg 31%
    12:00 +16°C° 0 mm 6 mps 744 mmHg 29%
    13:00 +16°C° 0 mm 6 mps 744 mmHg 26%
    14:00 +17°C° 0 mm 6 mps 744 mmHg 24%
    15:00 +17°C° 0 mm 6 mps 744 mmHg 25%
    16:00 +16°C° 0 mm 6 mps 744 mmHg 26%
    17:00 +16°C° 0 mm 5 mps 744 mmHg 27%
    18:00 +14°C° 0 mm 4 mps 745 mmHg 31%
    19:00 +12°C° 0 mm 3 mps 745 mmHg 35%
    20:00 +10°C° 0 mm 2 mps 746 mmHg 39%
    21:00 +10°C° 0 mm 2 mps 746 mmHg 41%
    22:00 +9°C° 0 mm 2 mps 747 mmHg 43%
    23:00 +9°C° 0 mm 2 mps 747 mmHg 45%

    Mañana, 26 Septiembre, Miércoles

    Tiempo Temperatura Precipitaciones Viento Presión Humedad
    00:00 +9°C° 0 mm 1 mps 747 mmHg 47%
    01:00 +8°C° 0 mm 1 mps 748 mmHg 49%
    02:00 +8°C° 0 mm 1 mps 748 mmHg 51%
    03:00 +7°C° 0 mm 1 mps 748 mmHg 53%
    04:00 +7°C° 0 mm 1 mps 748 mmHg 55%
    05:00 +6°C° 0 mm 1 mps 748 mmHg 57%
    06:00 +8°C° 0 mm 1 mps 749 mmHg 53%
    07:00 +9°C° 0 mm 1 mps 749 mmHg 50%
    08:00 +10°C° 0 mm 1 mps 749 mmHg 47%
    09:00 +11°C° 0 mm 1 mps 749 mmHg 43%
    10:00 +13°C° 0 mm 2 mps 749 mmHg 39%
    11:00 +15°C° 0 mm 2 mps 749 mmHg 36%
    12:00 +15°C° 0 mm 2 mps 749 mmHg 34%
    13:00 +14°C° 0 mm 3 mps 748 mmHg 33%
    14:00 +16°C° 0 mm 3 mps 748 mmHg 32%
    15:00 +16°C° 0 mm 3 mps 748 mmHg 32%
    16:00 +14°C° 0 mm 3 mps 748 mmHg 33%
    17:00 +15°C° 0 mm 2 mps 747 mmHg 33%
    18:00 +13°C° 0 mm 2 mps 748 mmHg 38%
    19:00 +10°C° 0 mm 2 mps 748 mmHg 42%
    20:00 +10°C° 0 mm 1 mps 748 mmHg 47%
    21:00 +9°C° 0 mm 1 mps 749 mmHg 48%
    22:00 +9°C° 0 mm 1 mps 749 mmHg 50%
    23:00 +8°C° 0 mm 1 mps 749 mmHg 51%

    Pasado mañana, 27 Septiembre, Jueves

    Tiempo Temperatura Precipitaciones Viento Presión Humedad
    00:00 +8°C° 0 mm 1 mps 749 mmHg 52%
    01:00 +7°C° 0 mm 1 mps 749 mmHg 53%
    02:00 +7°C° 0 mm 1 mps 749 mmHg 54%
    03:00 +6°C° 0 mm 1 mps 748 mmHg 55%
    04:00 +6°C° 0 mm 1 mps 748 mmHg 57%
    05:00 +6°C° 0 mm 1 mps 748 mmHg 58%
    06:00 +7°C° 0 mm 1 mps 748 mmHg 54%
    07:00 +9°C° 0 mm 1 mps 748 mmHg 50%
    08:00 +10°C° 0 mm 1 mps 748 mmHg 46%
    09:00 +12°C° 0 mm 1 mps 748 mmHg 41%
    10:00 +13°C° 0 mm 1 mps 747 mmHg 37%
    11:00 +15°C° 0 mm 2 mps 747 mmHg 33%
    12:00 +16°C° 0 mm 2 mps 746 mmHg 31%
    13:00 +16°C° 0 mm 2 mps 746 mmHg 29%
    14:00 +17°C° 0 mm 3 mps 745 mmHg 27%
    15:00 +17°C° 0 mm 2 mps 744 mmHg 27%
    16:00 +17°C° 0 mm 2 mps 744 mmHg 28%
    17:00 +16°C° 0 mm 2 mps 743 mmHg 28%
    18:00 +14°C° 0 mm 2 mps 743 mmHg 33%
    19:00 +12°C° 0 mm 1 mps 743 mmHg 37%
    20:00 +10°C° 0 mm 1 mps 744 mmHg 41%
    21:00 +10°C° 0 mm 1 mps 743 mmHg 41%
    22:00 +9°C° 0 mm 1 mps 743 mmHg 42%
    23:00 +9°C° 0 mm 1 mps 743 mmHg 42%

    28 Septiembre, Viernes

    Tiempo Temperatura Precipitaciones Viento Presión Humedad
    00:00 +9°C° 0 mm 1 mps 743 mmHg 42%
    01:00 +9°C° 0 mm 1 mps 743 mmHg 43%
    02:00 +8°C° 0 mm 1 mps 743 mmHg 43%
    03:00 +8°C° 0 mm 1 mps 742 mmHg 44%
    04:00 +8°C° 0 mm 1 mps 742 mmHg 45%
    05:00 +8°C° 0 mm 1 mps 742 mmHg 46%
    06:00 +9°C° 0 mm 1 mps 742 mmHg 43%
    07:00 +11°C° 0 mm 1 mps 742 mmHg 41%
    08:00 +12°C° 0 mm 1 mps 742 mmHg 38%
    09:00 +14°C° 0 mm 1 mps 742 mmHg 35%
    10:00 +16°C° 0 mm 1 mps 741 mmHg 32%
    11:00 +18°C° 0 mm 2 mps 741 mmHg 28%
    12:00 +19°C° 0 mm 2 mps 741 mmHg 29%
    13:00 +20°C° 0 mm 2 mps 740 mmHg 29%
    14:00 +21°C° 0 mm 2 mps 739 mmHg 29%
    15:00 +20°C° 0 mm 2 mps 739 mmHg 31%
    16:00 +20°C° 0 mm 2 mps 739 mmHg 33%
    17:00 +20°C° 0 mm 2 mps 738 mmHg 35%
    18:00 +19°C° 0 mm 1 mps 738 mmHg 39%
    19:00 +16°C° 0 mm 1 mps 738 mmHg 44%
    20:00 +14°C° 0 mm 1 mps 738 mmHg 48%
    21:00 +13°C° 0 mm 1 mps 738 mmHg 49%
    22:00 +13°C° 0 mm 1 mps 738 mmHg 50%
    23:00 +13°C° 0 mm 1 mps 738 mmHg 51%

    29 Septiembre, Sábado

    Tiempo Temperatura Precipitaciones Viento Presión Humedad
    00:00 +13°C° 0 mm 1 mps 738 mmHg 52%
    01:00 +12°C° 0 mm 1 mps 738 mmHg 54%
    02:00 +12°C° 0 mm 1 mps 738 mmHg 56%
    03:00 +12°C° 0 mm 1 mps 738 mmHg 57%
    04:00 +11°C° 0 mm 1 mps 737 mmHg 59%
    05:00 +11°C° 0 mm 1 mps 737 mmHg 61%
    06:00 +13°C° 0 mm 1 mps 737 mmHg 57%
    07:00 +14°C° 0 mm 1 mps 737 mmHg 54%
    08:00 +15°C° 0 mm 1 mps 737 mmHg 51%
    09:00 +18°C° 0 mm 1 mps 737 mmHg 47%
    10:00 +20°C° 0 mm 1 mps 737 mmHg 43%
    11:00 +21°C° 0 mm 2 mps 737 mmHg 39%
    12:00 +23°C° 0 mm 2 mps 737 mmHg 37%
    13:00 +23°C° 0 mm 2 mps 736 mmHg 36%
    14:00 +24°C° 0 mm 2 mps 736 mmHg 35%
    15:00 +24°C° 0 mm 1 mps 736 mmHg 36%
    16:00 +24°C° 0 mm 1 mps 736 mmHg 37%
    17:00 +23°C° 0 mm 1 mps 736 mmHg 38%
    18:00 +21°C° 0 mm 1 mps 736 mmHg 43%
    19:00 +18°C° 0 mm 2 mps 736 mmHg 48%
    20:00 +16°C° 0 mm 2 mps 737 mmHg 53%
    21:00 +16°C° 0 mm 2 mps 737 mmHg 53%
    22:00 +16°C° 0 mm 2 mps 737 mmHg 53%
    23:00 +15°C° 0 mm 2 mps 737 mmHg 53%

    30 Septiembre, Domingo

    Tiempo Temperatura Precipitaciones Viento Presión Humedad
    00:00 +15°C° 0 mm 2 mps 737 mmHg 53%
    01:00 +15°C° 0 mm 2 mps 738 mmHg 54%
    02:00 +15°C° 0 mm 2 mps 738 mmHg 54%
    03:00 +14°C° 0 mm 2 mps 738 mmHg 55%
    04:00 +14°C° 0 mm 2 mps 738 mmHg 55%
    05:00 +14°C° 0 mm 1 mps 738 mmHg 56%
    06:00 +15°C° 0 mm 1 mps 739 mmHg 54%
    07:00 +16°C° 0 mm 1 mps 739 mmHg 51%
    08:00 +18°C° 0 mm 1 mps 739 mmHg 49%
    09:00 +20°C° 0 mm 1 mps 739 mmHg 45%
    10:00 +20°C° 0 mm 2 mps 739 mmHg 41%
    11:00 +23°C° 0 mm 2 mps 740 mmHg 37%
    12:00 +24°C° 0 mm 2 mps 739 mmHg 35%
    13:00 +24°C° 0 mm 2 mps 739 mmHg 34%
    14:00 +25°C° 0 mm 2 mps 738 mmHg 32%
    15:00 +25°C° 0 mm 2 mps 738 mmHg 34%
    16:00 +24°C° 0 mm 1 mps 738 mmHg 35%
    17:00 +24°C° 0 mm 1 mps 738 mmHg 36%
    18:00 +22°C° 0 mm 1 mps 738 mmHg 41%
    19:00 +20°C° 0 mm 1 mps 738 mmHg 45%
    20:00 +18°C° 0 mm 1 mps 738 mmHg 50%
    21:00 +18°C° 0 mm 1 mps 738 mmHg 51%
    22:00 +16°C° 0 mm 1 mps 738 mmHg 53%
    23:00 +16°C° 0 mm 1 mps 738 mmHg 55%
    Mostrar más